Weather in Karpogori

Russia / Arkhangel'skaya Oblast'     64°00′02″N   44°26′58″E
temp.,
°C
wind,
m/s
gust,
m/s
humid.,
%
clouds,
%
prec.,
mm/h
press.,
hPa
HPBL,
m
28 november, sun
sun2800:00−20ne11100100 0.0 101211
03:00−20ne11100100 0.0 101210
06:00−16ne2597100 0.0 101090
09:00−13nne3895100 0.0 1008199
12:00−11nne3894100 0.1 1006269
15:00−11nne3895100 0.3 1005313
18:00−12nne3895100 0.1 1004297
21:00−12nne3895100 0.2 1005309
29 november, mon
mon2900:00−13n3795100 0.1 1005314
03:00−13n3795100 0.2 1006288
06:00−14nnw3796100 0.1 1008207
09:00−16nw2698100 0.1 1010147
12:00−16nw2597100 0.0 1013113
15:00−20nnw1110050 0.0 101412
18:00−22nne1110032 0.0 10169
21:00−24ne1110026 0.0 10169
30 november, tue
tue3000:00−24ene1110095 0.0 101511
03:00−20ne2697100 0.0 101292
06:00−17ene41486100 0.0 1009321
09:00−16ene51688100 0.0 1005454
12:00−13ene51786100 0.0 1000627
15:00−12ene61785100 0.0 995680
18:00−10ene61782100 0.0 991734
21:00−10ene61592100 0.2 987760
1 december, wed
wed100:00−9ene61493100 0.9 984757
03:00−9ene51393100 1.9 982688
06:00−8ene41194100 0.8 982595
09:00−8ene41093100 1.3 983467
12:00−8ene3995100 0.5 984395
15:00−7e399599 0.9 984327
18:00−5e31096100 0.4 984329
21:00−3se4995100 0.7 984443
2 december, thu
thu200:00−6se3796100 0.2 985304
03:00−7sse3795100 0.6 985403
06:00−8sse2596100 0.3 985190
09:00−10sse1198100 0.4 98610
12:00−10sw139799 0.1 98690
15:00−12sw119995 0.1 9879
18:00−12sw249899 0.1 98892
21:00−11wsw2597100 0.1 989151